Location: *
(0.1100°N, 5.5000°E)
Time: 21:52:25
(UTC+00:00)

N. Korean satellite - Visible Passes

Search period start: 26 March 2023 00:00
Search period end: 05 April 2023 00:00
Orbit: 392 x 417 km, 97.3° (Epoch: 26 March)

Date Brightness Start Highest point End Pass type
(mag) Time Alt. Az. Time Alt. Az. Time Alt. Az.
27 Mar 7.3 04:30:23 10° NNE 04:33:19 45° E 04:36:16 10° S visible
28 Mar 7.4 05:13:42 10° NNW 05:16:06 21° W 05:18:31 10° SW visible
29 Mar 7.9 04:24:23 10° NE 04:27:10 33° E 04:29:57 10° SSE visible
30 Mar 7.0 05:07:00 10° NNW 05:09:41 28° W 05:12:22 10° SW visible
31 Mar 8.5 04:17:57 10° NE 04:20:29 24° E 04:23:03 10° SSE visible
01 Apr 6.5 04:59:53 10° N 05:02:45 39° W 05:05:38 10° SSW visible
02 Apr 9.1 04:11:09 10° NE 04:13:19 18° E 04:15:29 10° SSE visible
03 Apr 6.1 04:52:18 10° N 04:55:18 59° W 04:58:18 10° SSW visible
04 Apr 9.5 04:04:06 10° ENE 04:05:37 13° E 04:07:09 10° SE visible
